Regional Weather Roundup
Issued by NWS Jackson, KY

Home | Current Version | Previous Version | Graphics & Text | Print | Product List | Glossary Off
Versions: 1 2 3 4 5 6 7 8 9 10 11 12 13 14 15 16 17 18 19 20 21 22 23 24 25 26 27 28 29 30 31 32 33 34 35 36 37 38 39 40 41 42 43 44 45 46 47 48 49 50

000
ASUS43 KJKL 211705
RWRJKL

EAST KENTUCKY HOURLY WEATHER ROUNDUP
NATIONAL WEATHER SERVICE JACKSON KY
100 PM EDT SUN SEP 21 2014

NOTE: "FAIR" INDICATES FEW OR NO CLOUDS BELOW 12,000 FEET WITH
NO SIGNIFICANT WEATHER AND/OR OBSTRUCTIONS TO VISIBILITY.

* THESE REPORTS ARE NOT UNDER NWS QUALITY CONTROL AND MAY NOT
  REPORT WEATHER SUCH AS PRECIPITATION AND FOG.

KYZ079-080-083-085-087-088-110-112-115-119-120-211800
...EASTERN KENTUCKY...

CITY           SKY/WX    TMP DP  RH WIND       PRES   REMARKS
JACKSON        CLOUDY    72  66  81 CALM      29.92F
LONDON         CLOUDY    75  65  70 W12       29.95F
SOMERSET*      CLOUDY    73  64  73 W14G21    29.96S
MONTICELLO*    PTSUNNY   77  67  71 SW10      29.97S
WILLIAMSBURG*  PTSUNNY   73  68  83 SW6       29.96F
MIDDLESBORO*   LGT RAIN  74  67  76 S7        29.96F
HARLAN APT*    CLOUDY    72  64  78 MISG      29.97S
BLACK MTN*       N/A     61  61 100 SW6         N/A
PIKEVILLE APT* CLOUDY    72  66  83 SW9       29.91F
BIG SANDY*     CLOUDY    74  67  78 SW10G18   29.90F
MOREHEAD APT*  PTSUNNY   77  68  73 W9        29.89F
$$

KYZ035-036-041-042-044-050-067-078-099-211800
...CENTRAL KENTUCKY...

CITY           SKY/WX    TMP DP  RH WIND       PRES   REMARKS
MT STERLING*   PTSUNNY   77  68  73 W10G20    29.90F
FLEMING/MASON* MOSUNNY   79  66  63 W18       29.86F
DANVILLE*      CLOUDY    77  68  73 W8        29.93S
RICHMOND*      CLOUDY    73  66  78 SW8       29.91F
LEXINGTON      PTSUNNY   80  67  64 W8        29.89F
FRANKFORT      PTSUNNY   78  65  63 NW8G17    29.87F
$$

KYZ091>093-OHZ055-061-077-WVZ005-015-034-035-042-211800
...SOUTHERN OHIO/WEST VIRGINIA...

CITY           SKY/WX    TMP DP  RH WIND       PRES   REMARKS
COVINGTON      MOSUNNY   76  52  43 W21G29    29.86S
COLUMBUS       MOSUNNY   81  56  42 W25       29.77S
DAYTON         MOSUNNY   76  46  34 W24       29.84S
WILMINGTON     MOSUNNY   76  56  49 W18G32    29.82S
HUNTINGTON     PTSUNNY   75  67  76 SW12      29.84F
CHARLESTON     CLOUDY    72  66  81 SW13      29.85F
PINEVILLE*     CLOUDY    73  71  93 MISG      29.97F
BECKLEY        PTSUNNY   71  63  75 W9        29.95F
BLUEFIELD      PTSUNNY   75  62  64 W10G18    29.97F
$$

VAZ002-007-008-TNZ017-027-036-066-071-211800
...SOUTHWEST VIRGINIA/EAST TENNESSEE...

CITY           SKY/WX    TMP DP  RH WIND       PRES   REMARKS
WISE*          LGT RAIN  70  61  73 SW16      30.01F
JONESVILLE*    PTSUNNY   72  68  88 CALM      30.00F
ABINGDON*      PTSUNNY   75  64  70 W12G17    29.99F
BRISTOL        PTSUNNY   79  62  56 SW12G22   29.97F
KNOXVILLE      PTSUNNY   81  64  56 W15G23    29.98F
OAK RIDGE      CLOUDY    78  65  63 VRB6      30.00F
CROSSVILLE     CLOUDY    74  64  71 SW7       30.04F
NASHVILLE      PTSUNNY   83  67  58 W13G21    29.98F
$$

...KEY TO REMARKS...
VSB - VISIBILITY IN MILES
WCI - WIND CHILL INDEX
HX  - HEAT INDEX

$$



USA.gov is the U.S. government's official web portal to all federal, state and local government web resources and services.